Content
SEND FEEDBACK

Daily
Averages
Monthly
Summary
United States of America

MORRISVILLE, NORTH CAROLINA


Home > North America > United States > North Carolina
Elevation: 387 feet     Latitude: 35 52N     Longitude: 078 47W

WEATHER
 
SELECT A DAY
Number of Records: 193,063;   Date Range: 1/1/95 - 9/3/14
 
SHARE

PRINT THIS DATA

[ ← Previous Day ]
WEATHER ALMANAC - FEBRUARY 5, 2013
[ Next Day → ]
[ °C ]   °F
Weather ElementAverageHighLow
Temperature47.5 °F60.1 °F (3:51 pm)39 °F (5:51 am)
Dewpoint30.5 °F33.1 °F (6:51 pm)27 °F (1:51 am)
Humidity53.3 %70 % (11:51 pm)33 % (3:51 pm)
Barometer29.95 in29.99 in (8:51 am)29.88 in (3:51 pm)
Wind Speed5.8 mph15 mph (9:51 am)
Weather ElementAverage
Visibility10 mi
Wind DirectionSSE (157 °)

Weather ElementTotal
Precipitation---
Heating Degree Days15.5 (Base 65)
Averaged from 23 records on February 5, 2013
WEATHER CONDITIONS BREAKOUT
WIND DIRECTION BREAKOUT
WEATHER BY HOUR - FEBRUARY 5, 2013
[ °C ]   °F
Local TimeTemperatureDewpointHumidityBarometerVisibilityWind DirectionWind SpeedGust SpeedPrecipitationEventsConditions
1:51 AM41.0 °F27.0 °F57 %29.98 in10.0 miSW (220°)10.4 mphMostly Cloudy
2:51 AM41.0 °F27.0 °F57 %29.96 in10.0 miSW (230°)9.2 mphMostly Cloudy
3:51 AM39.9 °F28.0 °F63 %29.95 in10.0 miSW (230°)8.1 mphMostly Cloudy
4:51 AM39.9 °F28.0 °F63 %29.95 in10.0 miSW (220°)8.1 mphMostly Cloudy
5:51 AM39.0 °F28.0 °F65 %29.96 in10.0 miSW (230°)6.9 mphMostly Cloudy
6:51 AM39.0 °F28.9 °F67 %29.97 in10.0 miSW (230°)8.1 mphMostly Cloudy
7:51 AM39.9 °F28.9 °F65 %29.98 in10.0 miWSW (240°)9.2 mphMostly Cloudy
8:51 AM44.1 °F30.0 °F58 %29.99 in10.0 miWSW (240°)12.7 mphMostly Cloudy
9:51 AM46.9 °F30.0 °F52 %29.99 in10.0 miSW (230°)15.0 mphMostly Cloudy
10:51 AM48.9 °F30.9 °F50 %29.99 in10.0 miWSW (240°)10.4 mphMostly Cloudy
11:51 AM52.0 °F30.9 °F45 %29.96 in10.0 miSW (230°)9.2 mphMostly Cloudy
12:51 PM55.0 °F32.0 °F42 %29.93 in10.0 miWSW (240°)6.9 mphMostly Cloudy
1:51 PM57.0 °F30.9 °F37 %29.91 in10.0 miSW (220°)8.1 mphMostly Cloudy
2:51 PM59.0 °F30.9 °F35 %29.89 in10.0 miWest (260°)6.9 mphScattered Clouds
3:51 PM60.1 °F30.9 °F33 %29.88 in10.0 miNorth (350°)3.5 mphScattered Clouds
4:51 PM59.0 °F30.9 °F35 %29.90 in10.0 miCalmScattered Clouds
5:51 PM55.9 °F32.0 °F40 %29.91 in10.0 miCalmMostly Cloudy
6:51 PM52.0 °F33.1 °F49 %29.92 in10.0 miCalmMostly Cloudy
7:51 PM48.0 °F33.1 °F56 %29.93 in10.0 miCalmMostly Cloudy
8:51 PM48.0 °F33.1 °F56 %29.95 in10.0 miCalmMostly Cloudy
9:51 PM44.1 °F32.0 °F63 %29.96 in10.0 miCalmScattered Clouds
10:51 PM42.1 °F32.0 °F67 %29.98 in10.0 miCalmPartly Cloudy
11:51 PM41.0 °F32.0 °F70 %29.97 in10.0 miCalmPartly Cloudy
Hourly data recorded from KRDU, located miles away from Morrisville, North Carolina







STORIES FROM OUR PARTNERS